Air Resources Laboratory banner image
Air Resources Laboratory web site National Oceanic and Atmospheric Administration (NOAA)

ne roundup


Office: OAX

ASUS43 KOAX 180102
RWRNE

WEATHER ROUNDUP FOR NEBRASKA
NATIONAL WEATHER SERVICE OMAHA NE
700 PM CST SUN DEC 17 2017

NOTES: SATELLITE DATA IS BEING USED TO AUGMENT CLOUD COVER ABOVE
       12000 FEET.
       "FAIR" INDICATES FEW OR NO CLOUDS BELOW 12,000 FEET WITH NO
       SIGNIFICANT WEATHER AND/OR OBSTRUCTIONS TO VISIBILITY.


NEZ001>004-019>022-054>056-180200-
NEBRASKA PANHANDLE

CITY           SKY/WX    TMP DP  RH WIND       PRES   REMARKS
SCOTTSBLUFF    CLEAR     40  18  41 W14       29.88R WCI  32
ALLIANCE       CLEAR     22  18  85 SW10      29.86R WCI  11
CHADRON        CLEAR     36  22  56 W12       29.86R WCI  28
GORDON         FAIR      26  21  83 CALM      29.83S
KIMBALL        CLEAR     27  23  84 SW8       29.91R WCI  19
SIDNEY         CLEAR     26  22  84 SW8       29.92R WCI  18
$$

NEZ057>060-069>072-079>082-180200-
SOUTHWEST NEBRASKA

CITY           SKY/WX    TMP DP  RH WIND       PRES   REMARKS
NORTH PLATTE   CLEAR     25  24  96 CALM      29.94S
IMPERIAL       CLEAR     27  24  89 SW8       29.95R WCI  19
LEXINGTON      CLOUDY    37  31  79 CALM      29.97S
MCCOOK         CLEAR     34  29  82 SW3       29.97R
OGALLALA       CLEAR     32  27  81 CALM      29.92R
$$

NEZ005>010-023>029-035>040-094-180200-
NORTH CENTRAL NEBRASKA

CITY           SKY/WX    TMP DP  RH WIND       PRES   REMARKS
VALENTINE      CLEAR     33  27  78 S7        29.89S WCI  27
AINSWORTH      CLEAR     28  27  93 S6        29.91S WCI  22
BROKEN BOW     CLOUDY    33  29  85 SW3       29.95S
O'NEILL        CLOUDY    36  30  78 SE3       29.96S
ORD            CLOUDY    36  29  75 SW3       29.96R
THEDFORD       CLEAR     31  30  96 S6        29.92S WCI  26
$$

NEZ041-046>049-061>064-073>077-083>087-180200-
SOUTH CENTRAL NEBRASKA

CITY           SKY/WX    TMP DP  RH WIND       PRES   REMARKS
GRAND ISLAND   CLOUDY    32  28  85 NW6       29.99R WCI  26
AURORA         CLOUDY    33  28  82 CALM      29.98R
HASTINGS       MOCLDY    36  29  75 W5        29.99R WCI  32
HEBRON         CLOUDY    31  28  87 CALM      30.00R
HOLDREGE       MOCLDY    34  29  82 CALM      29.98R
KEARNEY        PTCLDY    33  27  78 NW3       29.99R
YORK           CLOUDY    32  28  86 N5        29.99R WCI  27
$$

NEZ011>018-030>034-042>045-180200-
NORTHEAST NEBRASKA

CITY           SKY/WX    TMP DP  RH WIND       PRES   REMARKS
NORFOLK        PTCLDY    29  23  78 W3        29.97S
ALBION         CLOUDY    34  28  80 CALM      29.98R
BLAIR          PTCLDY    29  27  90 CALM      29.98S FOG
COLUMBUS       CLOUDY    30  26  85 CALM      29.99R
FREMONT        PTCLDY    29  26  88 CALM      29.99S
TEKAMAH        CLOUDY    28  21  75 CALM      30.00S HAZE
WAYNE          CLOUDY    30  28  91 CALM      29.98S
$$

NEZ050>053-065>068-078-088>093-180200-
SOUTHEAST NEBRASKA

CITY           SKY/WX    TMP DP  RH WIND       PRES   REMARKS
LINCOLN        PTCLDY    34  28  79 CALM      30.01R
OMAHA EPPLEY   MOCLDY    29  23  78 CALM      30.00S
BEATRICE       CLOUDY    32  31  96 CALM      30.00R FOG
FALLS CITY     CLOUDY    38  35  89 N5        30.00R WCI  34
NEBRASKA CITY  PTCLDY    32  32 100 SW3       30.00R FOG
PLATTSMOUTH    PTCLDY    32  30  92 W3        30.00R
$$

NEZ044-045-051>053-067-180200-
OMAHA AREA

CITY           SKY/WX    TMP DP  RH WIND       PRES   REMARKS
OMAHA EPPLEY   MOCLDY    29  23  78 CALM      30.00S
BLAIR          PTCLDY    29  27  90 CALM      29.98S FOG
FREMONT        PTCLDY    29  26  88 CALM      29.99S
MILLARD        MOCLDY    33  28  83 CALM      30.00R
OFFUTT AFB     PTCLDY    29  26  87 NE3       29.99S
PLATTSMOUTH    PTCLDY    32  30  92 W3        30.00R
WAHOO          FAIR      27  24  89 CALM      30.00R FOG
$$


ASUS43 KOAX 180110
RWRNE

WEATHER ROUNDUP FOR NEBRASKA
NATIONAL WEATHER SERVICE OMAHA NE
700 PM CST SUN DEC 17 2017

NOTES: SATELLITE DATA IS BEING USED TO AUGMENT CLOUD COVER ABOVE
       12000 FEET.
       "FAIR" INDICATES FEW OR NO CLOUDS BELOW 12,000 FEET WITH NO
       SIGNIFICANT WEATHER AND/OR OBSTRUCTIONS TO VISIBILITY.


NEZ001>004-019>022-054>056-180200-
NEBRASKA PANHANDLE

CITY           SKY/WX    TMP DP  RH WIND       PRES   REMARKS
SCOTTSBLUFF    CLEAR     40  18  41 W14       29.88R WCI  32
ALLIANCE       CLEAR     22  18  85 SW10      29.86R WCI  11
CHADRON        CLEAR     36  22  56 W12       29.86R WCI  28
GORDON         FAIR      26  21  83 CALM      29.83S
KIMBALL        CLEAR     27  23  84 SW8       29.91R WCI  19
SIDNEY         CLEAR     26  22  84 SW8       29.92R WCI  18
$$

NEZ057>060-069>072-079>082-180200-
SOUTHWEST NEBRASKA

CITY           SKY/WX    TMP DP  RH WIND       PRES   REMARKS
NORTH PLATTE   CLEAR     25  24  96 CALM      29.94S
IMPERIAL       CLEAR     27  24  89 SW8       29.95R WCI  19
LEXINGTON      CLOUDY    37  31  79 CALM      29.97S
MCCOOK         CLEAR     34  29  82 SW3       29.97R
OGALLALA       CLEAR     32  27  81 CALM      29.92R
$$

NEZ005>010-023>029-035>040-094-180200-
NORTH CENTRAL NEBRASKA

CITY           SKY/WX    TMP DP  RH WIND       PRES   REMARKS
VALENTINE      CLEAR     33  27  78 S7        29.89S WCI  27
AINSWORTH      CLEAR     28  27  93 S6        29.91S WCI  22
BROKEN BOW     CLOUDY    33  29  85 SW3       29.95S
O'NEILL        CLOUDY    36  30  78 SE3       29.96S
ORD            CLOUDY    36  29  75 SW3       29.96R
THEDFORD       CLEAR     31  30  96 S6        29.92S WCI  26
$$

NEZ041-046>049-061>064-073>077-083>087-180200-
SOUTH CENTRAL NEBRASKA

CITY           SKY/WX    TMP DP  RH WIND       PRES   REMARKS
GRAND ISLAND   CLOUDY    32  28  85 NW6       29.99R WCI  26
AURORA         CLOUDY    33  28  82 CALM      29.98R
HASTINGS       MOCLDY    36  29  75 W5        29.99R WCI  32
HEBRON         CLOUDY    31  28  87 CALM      30.00R
HOLDREGE       MOCLDY    34  29  82 CALM      29.98R
KEARNEY        PTCLDY    33  27  78 NW3       29.99R
YORK           CLOUDY    32  28  86 N5        29.99R WCI  27
$$

NEZ011>018-030>034-042>045-180200-
NORTHEAST NEBRASKA

CITY           SKY/WX    TMP DP  RH WIND       PRES   REMARKS
NORFOLK        PTCLDY    29  23  78 W3        29.97S
ALBION         CLOUDY    34  28  80 CALM      29.98R
BLAIR          PTCLDY    29  27  90 CALM      29.98S FOG
COLUMBUS       CLOUDY    30  26  85 CALM      29.99R
FREMONT        PTCLDY    29  26  88 CALM      29.99S
TEKAMAH        CLOUDY    28  21  75 CALM      30.00S HAZE
WAYNE          CLOUDY    30  28  91 CALM      29.98S
$$

NEZ050>053-065>068-078-088>093-180200-
SOUTHEAST NEBRASKA

CITY           SKY/WX    TMP DP  RH WIND       PRES   REMARKS
LINCOLN        PTCLDY    34  28  79 CALM      30.01R
OMAHA EPPLEY   MOCLDY    29  23  78 CALM      30.00S
BEATRICE       CLOUDY    32  31  96 CALM      30.00R FOG
FALLS CITY     CLOUDY    38  35  89 N5        30.00R WCI  34
NEBRASKA CITY  PTCLDY    32  32 100 SW3       30.00R FOG
PLATTSMOUTH    PTCLDY    32  30  92 W3        30.00R
$$

NEZ044-045-051>053-067-180200-
OMAHA AREA

CITY           SKY/WX    TMP DP  RH WIND       PRES   REMARKS
OMAHA EPPLEY   MOCLDY    29  23  78 CALM      30.00S
BLAIR          PTCLDY    29  27  90 CALM      29.98S FOG
FREMONT        PTCLDY    29  26  88 CALM      29.99S
MILLARD        MOCLDY    33  28  83 CALM      30.00R
OFFUTT AFB     PTCLDY    29  26  87 NE3       29.99S
PLATTSMOUTH    PTCLDY    32  30  92 W3        30.00R
WAHOO          FAIR      27  24  89 CALM      30.00R FOG
$$




Office: FSD ASUS43 KFSD 180102 RWRSD WEATHER ROUNDUP FOR SOUTH DAKOTA NATIONAL WEATHER SERVICE SIOUX FALLS SD 700 PM CST SUN DEC 17 2017 NOTE: "FAIR" INDICATES FEW OR NO CLOUDS BELOW 12,000 FEET WITH NO SIGNIFICANT WEATHER AND/OR OBSTRUCTIONS TO VISIBILITY. SDZ001>005-009-010-012>017-180200- NORTHWEST AND NORTH CENTRAL SOUTH DAKOTA CITY SKY/WX TMP DP RH WIND PRES REMARKS BUFFALO N/A 32 24 72 SW13 29.72F WCI 22 FAITH N/A 31 25 78 S9 29.81S WCI 23 MOBRIDGE CLEAR 28 23 81 SE6 29.81F WCI 22 $$ SDZ012>016-024>037-041>051-057-063-072>074-180200- SOUTHWEST AND SOUTH CENTRAL SOUTH DAKOTA CITY SKY/WX TMP DP RH WIND PRES REMARKS RAPID CTY ARPT CLEAR 30 22 72 NW8 29.83R WCI 22 PIERRE CLEAR 32 28 85 S7 29.86F WCI 26 CUSTER CLOUDY 24 17 74 CALM 29.79R ELLSWORTH AFB PTCLDY 28 23 80 NW8 29.82R WCI 20 PHILIP CLEAR 30 26 85 S5 29.83F WCI 25 PINE RIDGE CLEAR 25 22 88 S5 29.84R WCI 19 SPEARFISH FAIR 32 18 55 W8 29.82S WCI 25 WINNER FAIR 37 29 72 S9 29.89F $$ SDZ004>011-016>023-039-040-180200- NORTHEAST SOUTH DAKOTA CITY SKY/WX TMP DP RH WIND PRES REMARKS ABERDEEN CLOUDY 33 28 81 S6 29.89S WCI 28 WATERTOWN CLOUDY 31 31 100 S6 29.89F WCI 25 BROOKINGS CLOUDY 34 28 79 SW5 29.93R WCI 30 SISSETON N/A 32 30 92 S8 29.88F WCI 25 $$ SDZ017-020-022-023-036>040-048>070-180200- SOUTHEAST SOUTH DAKOTA CITY SKY/WX TMP DP RH WIND PRES REMARKS SIOUX FALLS CLOUDY 30 28 92 CALM 29.95S HURON CLOUDY 37 31 78 MISG 29.90F CHAMBERLAIN CLOUDY 37 33 85 S7 29.90F MITCHELL CLOUDY 38 29 70 S8 29.94S YANKTON CLEAR 32 27 81 W6 29.97S WCI 26 $$ ABBREVIATIONS USED IN REMARKS TC - TEMPERATURE IN CELSIUS WCI - WIND CHILL INDEX HX - HEAT INDEX VSB - VISIBILITY ASUS43 KFSD 180102 RWRFSD WEATHER ROUNDUP FOR SE SOUTH DAKOTA/SW MINNESOTA/NW IOWA NATIONAL WEATHER SERVICE SIOUX FALLS SD 700 PM CST SUN DEC 17 2017 NOTE: "FAIR" INDICATES FEW OR NO CLOUDS BELOW 12,000 FEET WITH NO SIGNIFICANT WEATHER AND OR OBSTRUCTIONS TO VISIBILITY. SDZ038>040-050-052>070-180200- SOUTHEAST SOUTH DAKOTA CITY SKY/WX TMP DP RH WIND PRES REMARKS BROOKINGS CLOUDY 34 28 79 SW5 29.93R WCI 30 CHAMBERLAIN CLOUDY 37 33 85 S7 29.90F HURON CLOUDY 37 31 78 MISG 29.90F MADISON CLOUDY 32 30 93 SW5 29.93S WCI 27 MITCHELL CLOUDY 38 29 70 S8 29.94S SIOUX FALLS CLOUDY 30 28 92 CALM 29.95S WINNER FAIR 37 29 72 S9 29.89F YANKTON CLEAR 32 27 81 W6 29.97S WCI 26 $$ MNZ071-072-080-081-089-090-097-098-180200- SOUTHWEST MINNESOTA CITY SKY/WX TMP DP RH WIND PRES REMARKS FAIRMONT PTCLDY 27 23 85 CALM 29.98R JACKSON CLOUDY 27 23 86 CALM 29.95F FOG LUVERNE CLOUDY 27 21 80 S5 29.96S WCI 21 MARSHALL CLOUDY 29 26 89 S6 29.95S WCI 23 MONTEVIDEO CLOUDY 28 25 86 S3 29.94F PIPESTONE CLOUDY 32 27 80 CALM 29.92S REDWOOD FALLS CLOUDY 29 24 82 SE5 29.96R WCI 24 WINDOM N/A 27 16 63 CALM 29.95S HAZE WORTHINGTON CLOUDY 24 23 96 SW5 29.95F FOG WCI 18 $$ IAZ001>003-012>014-020>022-031-032-NEZ013-014-SDZ071-180200- NORTHWEST IOWA CITY SKY/WX TMP DP RH WIND PRES REMARKS CHEROKEE CLOUDY 32 28 86 CALM 29.99R DENISON PTCLDY 28 27 93 NW3 30.00S ESTHERVILLE CLOUDY 26 24 92 S3 29.97R LE MARS CLOUDY 32 28 86 CALM 29.98S ORANGE CITY CLOUDY 30 28 93 CALM 29.97S SHELDON CLOUDY 21 21 100 S5 29.95S FOG WCI 15 SIOUX CITY MOCLDY 28 24 85 W5 30.00R WCI 23 SPENCER CLOUDY 30 26 85 CALM 29.98R STORM LAKE CLOUDY 30 27 86 CALM 29.97R $$ ABBREVIATIONS USED IN REMARKS TC - TEMPERATURE IN CELSIUS WCI - WIND CHILL INDEX HX - HEAT INDEX VSB - VISIBILITY ASUS43 KFSD 180110 RWRFSD WEATHER ROUNDUP FOR SE SOUTH DAKOTA/SW MINNESOTA/NW IOWA NATIONAL WEATHER SERVICE SIOUX FALLS SD 700 PM CST SUN DEC 17 2017 NOTE: "FAIR" INDICATES FEW OR NO CLOUDS BELOW 12,000 FEET WITH NO SIGNIFICANT WEATHER AND OR OBSTRUCTIONS TO VISIBILITY. SDZ038>040-050-052>070-180200- SOUTHEAST SOUTH DAKOTA CITY SKY/WX TMP DP RH WIND PRES REMARKS BROOKINGS CLOUDY 34 28 79 SW5 29.93R WCI 30 CHAMBERLAIN CLOUDY 37 33 85 S7 29.90F HURON CLOUDY 37 31 78 MISG 29.90F MADISON CLOUDY 32 30 93 SW5 29.93S WCI 27 MITCHELL CLOUDY 38 29 70 S8 29.94S SIOUX FALLS CLOUDY 30 28 92 CALM 29.95S WINNER FAIR 37 29 72 S9 29.89F YANKTON CLEAR 32 27 81 W6 29.97S WCI 26 $$ MNZ071-072-080-081-089-090-097-098-180200- SOUTHWEST MINNESOTA CITY SKY/WX TMP DP RH WIND PRES REMARKS FAIRMONT PTCLDY 27 23 85 CALM 29.98R JACKSON CLOUDY 27 23 86 CALM 29.95F FOG LUVERNE CLOUDY 27 21 80 S5 29.96S WCI 21 MARSHALL CLOUDY 29 26 89 S6 29.95S WCI 23 MONTEVIDEO CLOUDY 28 25 86 S3 29.94F PIPESTONE CLOUDY 32 27 80 CALM 29.92S REDWOOD FALLS CLOUDY 29 24 82 SE5 29.96R WCI 24 TRACY CLOUDY 30 28 93 S5 29.95R WCI 25 WINDOM N/A 27 16 63 CALM 29.95S HAZE WORTHINGTON CLOUDY 24 23 96 SW5 29.95F FOG WCI 18 $$ IAZ001>003-012>014-020>022-031-032-NEZ013-014-SDZ071-180200- NORTHWEST IOWA CITY SKY/WX TMP DP RH WIND PRES REMARKS CHEROKEE CLOUDY 32 28 86 CALM 29.99R DENISON PTCLDY 28 27 93 NW3 30.00S ESTHERVILLE CLOUDY 26 24 92 S3 29.97R LE MARS CLOUDY 32 28 86 CALM 29.98S ORANGE CITY CLOUDY 30 28 93 CALM 29.97S SHELDON CLOUDY 21 21 100 S5 29.95S FOG WCI 15 SIOUX CITY MOCLDY 28 24 85 W5 30.00R WCI 23 SPENCER CLOUDY 30 26 85 CALM 29.98R STORM LAKE CLOUDY 30 27 86 CALM 29.97R $$ ABBREVIATIONS USED IN REMARKS TC - TEMPERATURE IN CELSIUS WCI - WIND CHILL INDEX HX - HEAT INDEX VSB - VISIBILITY ASUS43 KFSD 180110 RWRSD WEATHER ROUNDUP FOR SOUTH DAKOTA NATIONAL WEATHER SERVICE SIOUX FALLS SD 700 PM CST SUN DEC 17 2017 NOTE: "FAIR" INDICATES FEW OR NO CLOUDS BELOW 12,000 FEET WITH NO SIGNIFICANT WEATHER AND/OR OBSTRUCTIONS TO VISIBILITY. SDZ001>005-009-010-012>017-180200- NORTHWEST AND NORTH CENTRAL SOUTH DAKOTA CITY SKY/WX TMP DP RH WIND PRES REMARKS BUFFALO N/A 32 24 72 SW13 29.72F WCI 22 FAITH N/A 31 25 78 S9 29.81S WCI 23 MOBRIDGE CLEAR 28 23 81 SE6 29.81F WCI 22 $$ SDZ012>016-024>037-041>051-057-063-072>074-180200- SOUTHWEST AND SOUTH CENTRAL SOUTH DAKOTA CITY SKY/WX TMP DP RH WIND PRES REMARKS RAPID CTY ARPT CLEAR 30 22 72 NW8 29.83R WCI 22 PIERRE CLEAR 32 28 85 S7 29.86F WCI 26 CUSTER CLOUDY 24 17 74 CALM 29.79R ELLSWORTH AFB PTCLDY 28 23 80 NW8 29.82R WCI 20 PHILIP CLEAR 30 26 85 S5 29.83F WCI 25 PINE RIDGE CLEAR 25 22 88 S5 29.84R WCI 19 SPEARFISH FAIR 32 18 55 W8 29.82S WCI 25 WINNER FAIR 37 29 72 S9 29.89F $$ SDZ004>011-016>023-039-040-180200- NORTHEAST SOUTH DAKOTA CITY SKY/WX TMP DP RH WIND PRES REMARKS ABERDEEN CLOUDY 33 28 81 S6 29.89S WCI 28 WATERTOWN CLOUDY 31 31 100 S6 29.89F WCI 25 BROOKINGS CLOUDY 34 28 79 SW5 29.93R WCI 30 SISSETON N/A 32 30 92 S8 29.88F WCI 25 $$ SDZ017-020-022-023-036>040-048>070-180200- SOUTHEAST SOUTH DAKOTA CITY SKY/WX TMP DP RH WIND PRES REMARKS SIOUX FALLS CLOUDY 30 28 92 CALM 29.95S HURON CLOUDY 37 31 78 MISG 29.90F CHAMBERLAIN CLOUDY 37 33 85 S7 29.90F MITCHELL CLOUDY 38 29 70 S8 29.94S YANKTON CLEAR 32 27 81 W6 29.97S WCI 26 $$ ABBREVIATIONS USED IN REMARKS TC - TEMPERATURE IN CELSIUS WCI - WIND CHILL INDEX HX - HEAT INDEX VSB - VISIBILITY
Office: EAX ASUS43 KEAX 180110 RWREAX WEATHER ROUNDUP FOR EASTERN KANSAS AND NORTHWEST MISSOURI NATIONAL WEATHER SERVICE KANSAS CITY/PLEASANT HILL MO 700 PM CST SUN DEC 17 2017 KSZ040-057-103>105-MOZ028-029-037-043-180200- ...KANSAS CITY METROPOLITAN AREA... CITY SKY/WX TMP DP RH WIND PRES REMARKS K.C. INTL CLOUDY 45 43 93 S8 30.01R K.C. DOWNTOWN CLOUDY 47 42 83 S7 30.02R LEES SUMMIT CLOUDY 46 43 89 S10 30.03R OLATHE - IXD CLOUDY 44 43 96 S6 30.03R OLATHE - OJC CLOUDY 44 42 93 S6 30.02R LAWRENCE CLOUDY 48 44 86 S8 30.02R $$ MOZ001>008-011>017-020>025-030>033-038>040-044>046-053-054-180200- ...NORTHERN AND CENTRAL MISSOURI... CITY SKY/WX TMP DP RH WIND PRES REMARKS ST. JOSEPH MOCLDY 39 39 100 N5 30.01R FOG MOSBY CLOUDY 45 43 93 CALM 30.02R WARRENSBURG CLOUDY 43 43 100 S9 30.04R WHITEMAN AFB CLOUDY 44 43 94 SW8 30.00R CLINTON CLOUDY 45 45 100 SW5 30.06R SEDALIA CLOUDY 46 46 100 S8 30.06R WARSAW NOT AVBL CHILLICOTHE N/A 45 44 97 S6 30.02R KIRKSVILLE CLOUDY 44 32 62 SW7 30.00S $$ MOZ041-047>049-056>058-063>065-088>090-097-180200- ...EASTERN AND SOUTHERN MISSOURI... CITY SKY/WX TMP DP RH WIND PRES REMARKS ST. LOUIS INTL CLOUDY 50 43 77 SW13 30.05S SPIRIT OF STL CLOUDY 49 43 80 SW5 30.05R COLUMBIA CLOUDY 45 44 97 SW6 30.05R JEFFERSON CITY CLOUDY 47 44 90 SW5 30.07R ROLLA CLOUDY 46 44 93 SW7 30.06R OSAGE BEACH CLOUDY 46 42 86 SW6 30.08R SPRINGFIELD CLOUDY 46 45 96 SW6 30.06R BRANSON CLOUDY 45 45 100 CALM 30.08R FOG JOPLIN CLOUDY 45 44 97 SW5 30.08R WEST PLAINS CLOUDY 46 44 93 S3 30.09R FOG $$ IAZ060-094-KSZ022-034>040-054-083-096-NEZ052-066-093-180200- ...KANSAS...SOUTHEAST NEBRASKA AND IOWA... CITY SKY/WX TMP DP RH WIND PRES REMARKS TOPEKA CLOUDY 48 45 89 S8 30.00R MANHATTAN CLOUDY 48 39 71 N5 29.99R EMPORIA PTCLDY 43 39 86 SW10 30.01R CHANUTE CLOUDY 46 44 93 S6 30.06R WICHITA PTCLDY 41 37 86 S7 30.03R OMAHA MOCLDY 29 23 78 CALM 30.00S LINCOLN PTCLDY 34 28 79 CALM 30.01R FALLS CITY CLOUDY 38 35 89 N5 30.00R WCI 34 LAMONI CLOUDY 40 38 93 W5 29.97S DES MOINES CLOUDY 36 31 82 W7 29.98S WCI 30 $$